Regional Weather Roundup
Issued by NWS Charleston, SC

Home | Current Version | Previous Version | Text Only | Print | Product List | Glossary On
Versions: 1 2 3 4 5 6 7 8 9 10 11 12 13 14 15 16 17 18 19 20 21 22 23 24 25 26 27 28 29 30 31 32 33 34 35 36 37 38 39 40 41 42 43 44 45 46 47 48 49 50
353
ASUS42 KCHS 221327
RWRCHS

Regional Weather Roundup
National Weather Service Charleston SC
900 AM EDT SUN APR 22 2018

NOTE: "fair" indicates few or no clouds below 12,000 feet with no
significant weather and/or obstructions to visibility.

Not all stations are quality controlled. Use data with caution,
especially dewpoint observations.

SCZ027-030-031-034>040-042>050-221400-
...Southeast South Carolina...

CITY           SKY/WX    TMP DP  RH WIND       PRES   REMARKS
N Charleston   PTSUNNY   64  55  72 E7        30.31S
Waterfront Prk NOT AVBL
Mount Pleasant FAIR      68  57  68 E6        30.31F
Johns Island   PTSUNNY   66  57  72 E13       30.31F
Pinopolis        N/A     59  54  82 VRB3      30.24R
Moncks Corner  PTSUNNY   63  54  72 E7        30.32F
Summerville    PTSUNNY   63  54  72 E6        30.33S
Beaufort MCAS  FAIR      66  59  78 E10       30.29S
Beaufort Arpt  FAIR      66  57  72 E12       30.29R
Hilton Head Is MOSUNNY   66  61  82 NE9       30.29R
Walterboro     FAIR      63  54  72 E10       30.31F
Allendale      FAIR      64  54  68 CALM      30.30R

...Southern Midlands and Pee Dee...

CITY           SKY/WX    TMP DP  RH WIND       PRES   REMARKS
Georgetown     PTSUNNY   64  55  72 E10G16    30.35R
Kingstree      CLOUDY    61  48  63 E8        30.35R
Orangeburg     FAIR      62  53  72 E8        30.32S
Barnwell       FAIR      64  52  63 E10       30.31S
Aiken          PTSUNNY   61  52  72 E8        30.34F
Manning        PTSUNNY   54  46  76 E3        30.34S
Columbia       CLOUDY    59  53  80 SE8       30.33R
Sumter         CLOUDY    57  47  71 E5        30.32S
Florence       FAIR      57  48  72 E5        30.36R
Myrtle Beach   FAIR      65  53  65 E13       30.36R
N Myrtle Beach FAIR      65  50  58 E10G17    30.34R

$$

GAZ063-065-086>088-099>101-113>116-118-119-134>141-150-221400-
...Southeast Georgia...

CITY           SKY/WX    TMP DP  RH WIND       PRES   REMARKS
Savannah Arpt  PTSUNNY   67  59  75 E9        30.27F
Hunter AAF     FAIR      68  56  65 E14       30.23F
Fort Stewart   FAIR      66  58  75 E8        30.23S
Statesboro     CLOUDY    65  54  67 CALM      30.27F
Sylvania       FAIR      64  57  77 E9        30.28F
Claxton        PTSUNNY   65  59  82 NE7       30.26F

...CSRA, Central and far Southeast Georgia...

CITY           SKY/WX    TMP DP  RH WIND       PRES   REMARKS
Thomson        PTSUNNY   60  53  76 S9        30.33F
Augusta-Bush   CLOUDY    62  53  72 E7        30.30S
Augusta-Daniel PTSUNNY   63  52  67 E9        30.30F
Swainsboro       N/A     63  55  77 E12       30.26F
Vidalia        CLOUDY    64  59  82 E9        30.25S
Eastman        DRIZZLE   64  52  67 SE9       30.25F
Hazlehurst     LGT RAIN  64  57  79 E6        30.23S
Alma           LGT RAIN  62  60  93 NE6       30.22F FOG
Waycross       CLOUDY    65  62  90 E7        30.22S
Jesup          CLOUDY    64  59  82 CALM      30.24S
Baxley         LGT RAIN  61  61 100 E5        30.23F
Brunswick      CLOUDY    68  61  77 E9        30.25S
Saint Simons   CLOUDY    69  63  81 E9        30.24R

$$

SCZ027-028-034-036>038-045-046-048>050-GAZ119-141-221400-
...Lake and Supplemental Coastal Observations...

STATION/POSITION TIME  TEMP    WIND        PRES    WAVE   SWELL
                       AIR SEA DIR/SP/G            HT/PER HT/PER/DIR
                 (UTC) (F)     (DEG/KT/KT) (MB)    (FT/S) (FT/S/D)
Winyah Bay       1245   63      80/ 10     1027.0S
Lake Murray      1220   56      80/  6/  7 1026.1
ACE Basin NERRS  1245   64     350/  4       N/A
Fort Pulaski     1300   66 65   80/ 11/ 12 1025.6
Sapelo Island    1300   69      90/  8     1024.0

$$

ANZ835-935-AMZ111-154-330-350-352-354-370-450-454-472-221400-
...C-MAN and Buoy Observations...

STATION/POSITION TIME  TEMP    WIND        PRES    WAVE   SWELL
                       AIR SEA DIR/SP/G            HT/PER HT/PER/DIR
                 (UTC) (F)     (DEG/KT/KT) (MB)    (FT/S) (FT/S/D)
Buoy 41004       1300   68 67  110/ 12/ 14 1026.5
Buoy 41008       1250   66 64  100/ 10/ 12 1024.0R   5/ 6   3/120/ 6
Folly Beach CMAN 1300   64      60/ 13/ 15 1026.9R
Capers Nearshore 1308   64 63   70/ 10/ 14 1027.0R
Fripp Nearshore  1308   64 63   70/ 12/ 16 1024.9F


STATION/POSITION TIME  TEMP    WIND        PRES    WAVE   SWELL
                       AIR SEA DIR/SP/G            HT/PER HT/PER/DIR
                 (UTC) (F)     (DEG/KT/KT) (MB)    (FT/S) (FT/S/D)
5E St. Marys GA  1300      66                N/A     5/ 7
Frying Pan Buoy  1300   67 69  100/ 14/ 17 1027.2
Buoy 41025       1300   60 74   10/ 10/ 16 1029.5
Cape Lookout NC  1300           70/ 12/ 14 1029.0R
Buoy 41002       1300   65 72   70/ 12/ 17 1026.7
Buoy 41010       1300   72 76   80/ 19/ 23 1023.3
St Augustine FL  1300   69 67  100/ 12/ 14 1023.0R


$$




USA.gov is the U.S. government's official web portal to all federal, state and local government web resources and services.